sat.trackr.live / text

‹ back to catalog

STARLINK-3777

NORAD 52294 · 2022-041AK

PAYLOAD ACTIVE UNKNOWN

§ Identity

Operator
Country
US
Launch date
2022-04-21
Launch site
AFETR
Launch vehicle
Mass (kg)
RCS (m²)

Purposes: comms

External: N2YO · Heavens-Above · Gunter

§ Orbital elements

Epoch: 2026-05-25T04:29:17.238048Z

Period
95.44 min
Inclination
53.2135°
Eccentricity
0.0001157
Mean motion
15.08842103 rev/d
Perigee alt
538.9 km
Apogee alt
540.5 km
Semi-major
6,917.9 km
B*
5.4032e-5
RAAN
115.7081°
Arg perigee
73.6402°
Mean anomaly
286.4718°
Rev number
22,605

§ Raw data

STARLINK-37771 52294U 22041AK  26145.18700507  .00000572  00000+0  54032-4 0  99982 52294  53.2135 115.7081 0001157  73.6402 286.4718 15.08842103226055

JSON: /api/v1/satellites/52294 · /tle

For live sub-satellite position, see the globe view (requires WebGL).

§ Visibility from observer

Set your observer location to see the next 7 days of passes ≥ 10°. The values pass through the URL so the page stays shareable.

No JS? Fill the form by hand. The geolocation button needs JavaScript.